Date String (YYYY-MM-DD hh:mm:ss) UTC,Instrument flags,absolute air pressure of the measurement (hPa),sample flow rate (lpm),inlet stack bypass flow (lpm),air temperature of the measurement (°C),ambient temperature measured by the external sensor (°C),aerosol sample conditioner tube jacket temperature (°C),OPC LED temperature (°C),internal box temperature (°C),relative humidity of the measurement (%),span deviation,mass concentration of particles derived from Lorenz-Mie calculation of OPC scattering (μg/m³),mass concentration of particles derived from Lorenz-Mie calculation of OPC scattering (μg/m³),mass concentration of particles derived from Lorenz-Mie calculation of OPC scattering (μg/m³)
DateTimeUTC,F1_M11,P_M11,Q1_M11,Q2_M11,T1_M11,T2_M11,T3_M11,T4_M11,T5_M11,U1_M11,ZSPAN_M11,X0_M11,X2_M11,X1_M11
2023-11-12 21:00:00,SystemResetWarning,0836.9,5.00,000.00,028.0,026.9,000.0,036.2,029.6,7.3,0000.0,0009.97,0003.87,0003.35
2023-11-12 21:01:00,SystemResetWarning,0837.0,5.00,000.00,028.1,027.1,000.0,036.2,029.6,7.3,0000.0,0010.52,0003.93,0003.37
2023-11-12 21:02:00,SystemResetWarning,0836.9,5.01,000.00,028.1,027.2,000.0,036.2,029.7,7.4,0000.0,0010.27,0003.92,0003.38
2023-11-12 21:03:00,SystemResetWarning,0836.9,5.00,000.00,028.2,027.3,000.0,036.2,029.8,7.4,0000.0,0010.50,0003.93,0003.39
2023-11-12 21:04:00,SystemResetWarning,0837.0,4.99,000.00,028.2,027.4,000.0,036.3,029.8,7.3,0000.0,0010.48,0003.95,0003.41
2023-11-12 21:05:00,SystemResetWarning,0836.9,5.00,000.00,028.3,027.5,000.0,036.3,029.9,7.3,0000.0,0010.53,0003.97,0003.41
2023-11-12 21:06:00,SystemResetWarning,0836.9,5.00,000.00,028.3,027.6,000.0,036.3,029.9,7.3,0000.0,0010.62,0004.00,0003.43
2023-11-12 21:07:00,SystemResetWarning,0836.9,5.00,000.00,028.4,027.6,000.0,036.4,030.0,7.2,0000.0,0010.62,0004.02,0003.46
2023-11-12 21:08:00,SystemResetWarning,0836.9,5.00,000.00,028.4,027.7,000.0,036.4,030.0,7.2,0000.0,0010.25,0004.04,0003.49
2023-11-12 21:09:00,SystemResetWarning,0836.9,5.01,000.00,028.4,027.7,000.0,036.4,030.0,7.1,0000.0,0010.20,0004.07,0003.50
2023-11-12 21:10:00,SystemResetWarning,0836.9,4.99,000.00,028.4,026.4,000.0,036.4,029.9,7.1,0000.0,0009.82,0004.12,0003.52
2023-11-12 21:11:00,SystemResetWarning,0837.0,5.00,000.00,028.3,024.1,000.0,036.4,029.5,7.2,0000.0,0009.88,0004.13,0003.55
2023-11-12 21:12:00,SystemResetWarning,0836.9,5.01,000.00,028.2,023.6,000.0,036.3,029.3,7.3,0000.0,0010.22,0004.12,0003.55
2023-11-12 21:13:00,SystemResetWarning,0837.0,5.01,000.00,028.0,023.9,000.0,036.3,028.9,7.2,0000.0,0010.17,0004.13,0003.56
2023-11-12 21:14:00,SystemResetWarning,0837.0,5.00,000.00,027.9,024.4,000.0,036.2,028.8,7.3,0000.0,0010.09,0004.16,0003.57
2023-11-12 21:15:00,SystemResetWarning,0837.0,5.00,000.00,027.8,024.9,000.0,036.2,028.9,7.3,0000.0,0009.16,0004.12,0003.55
2023-11-12 21:16:00,SystemResetWarning,0836.9,4.99,000.00,027.8,025.3,000.0,036.2,029.0,7.3,0000.0,0009.16,0004.11,0003.55
2023-11-12 21:17:00,SystemResetWarning,0837.0,5.00,000.00,027.8,025.7,000.0,036.1,029.1,7.3,0000.0,0010.07,0004.09,0003.55
2023-11-12 21:18:00,SystemResetWarning,0837.0,5.00,000.00,027.8,026.0,000.0,036.1,029.2,7.3,0000.0,0011.03,0004.12,0003.55
2023-11-12 21:19:00,SystemResetWarning,0837.0,5.00,000.00,027.9,026.3,000.0,036.1,029.3,7.3,0000.0,0011.19,0004.15,0003.56
2023-11-12 21:20:00,SystemResetWarning,0837.0,5.00,000.00,027.9,026.5,000.0,036.1,029.4,7.3,0000.0,0011.86,0004.15,0003.56
2023-11-12 21:21:00,SystemResetWarning,0836.9,4.99,000.00,027.9,026.7,000.0,036.1,029.5,7.2,0000.0,0011.99,0004.16,0003.56
2023-11-12 21:22:00,SystemResetWarning,0836.9,4.99,000.00,028.0,026.9,000.0,036.1,029.5,7.2,0000.0,0011.68,0004.16,0003.55
2023-11-12 21:23:00,SystemResetWarning,0836.9,5.00,000.00,028.0,027.0,000.0,036.2,029.6,7.2,0000.0,0010.77,0004.18,0003.55
2023-11-12 21:24:00,SystemResetWarning,0836.9,5.01,000.00,028.1,027.1,000.0,036.2,029.7,7.2,0000.0,0010.89,0004.21,0003.58
2023-11-12 21:25:00,SystemResetWarning,0836.9,5.01,000.00,028.1,027.3,000.0,036.2,029.8,7.2,0000.0,0012.45,0004.24,0003.60
2023-11-12 21:26:00,SystemResetWarning,0837.0,5.00,000.00,028.2,027.4,000.0,036.2,029.8,7.2,0000.0,0013.22,0004.28,0003.62
2023-11-12 21:27:00,SystemResetWarning,0837.0,5.00,000.00,028.2,027.4,000.0,036.3,029.8,7.2,0000.0,0013.14,0004.30,0003.64
2023-11-12 21:28:00,SystemResetWarning,0837.0,4.99,000.00,028.3,027.5,000.0,036.3,029.9,7.1,0000.0,0012.25,0004.35,0003.65
2023-11-12 21:29:00,SystemResetWarning,0837.0,4.99,000.00,028.3,027.6,000.0,036.3,030.0,7.2,0000.0,0011.33,0004.36,0003.67
2023-11-12 21:30:00,SystemResetWarning,0837.0,5.00,000.00,028.4,027.5,000.0,036.4,030.0,7.2,0000.0,0011.19,0004.34,0003.68
2023-11-12 21:31:00,SystemResetWarning,0836.9,5.00,000.00,028.4,025.8,000.0,036.4,029.8,7.2,0000.0,0010.80,0004.34,0003.70
2023-11-12 21:32:00,SystemResetWarning,0836.9,5.00,000.00,028.2,023.9,000.0,036.3,029.4,7.2,0000.0,0010.69,0004.35,0003.73
2023-11-12 21:33:00,SystemResetWarning,0836.9,5.01,000.00,028.1,023.7,000.0,036.2,029.1,7.2,0000.0,0010.73,0004.35,0003.75
2023-11-12 21:34:00,SystemResetWarning,0836.9,5.00,000.00,027.9,024.0,000.0,036.2,028.7,7.3,0000.0,0010.83,0004.40,0003.76
2023-11-12 21:35:00,SystemResetWarning,0836.9,4.99,000.00,027.8,024.5,000.0,036.2,028.7,7.4,0000.0,0010.82,0004.42,0003.76
2023-11-12 21:36:00,SystemResetWarning,0836.9,5.00,000.00,027.8,025.0,000.0,036.1,028.9,7.3,0000.0,0009.92,0004.39,0003.75
2023-11-12 21:37:00,SystemResetWarning,0837.0,5.01,000.00,027.8,025.4,000.0,036.1,029.0,7.4,0000.0,0009.40,0004.38,0003.74
2023-11-12 21:38:00,SystemResetWarning,0837.0,5.00,000.00,027.8,025.8,000.0,036.1,029.2,7.4,0000.0,0009.39,0004.39,0003.74
2023-11-12 21:39:00,SystemResetWarning,0837.0,5.00,000.00,027.8,026.1,000.0,036.1,029.3,7.4,0000.0,0009.44,0004.39,0003.74
2023-11-12 21:40:00,SystemResetWarning,0837.0,4.99,000.00,027.9,026.4,000.0,036.1,029.4,7.4,0000.0,0009.52,0004.40,0003.73
2023-11-12 21:41:00,SystemResetWarning,0837.0,4.99,000.00,027.9,026.6,000.0,036.1,029.5,7.4,0000.0,0009.42,0004.37,0003.71
2023-11-12 21:42:00,SystemResetWarning,0837.0,5.00,000.00,027.9,026.8,000.0,036.1,029.5,7.4,0000.0,0009.38,0004.36,0003.70
2023-11-12 21:43:00,SystemResetWarning,0837.1,5.00,000.00,028.0,026.9,000.0,036.1,029.6,7.4,0000.0,0009.31,0004.37,0003.69
2023-11-12 21:44:00,SystemResetWarning,0837.1,5.00,000.00,028.0,027.1,000.0,036.1,029.6,7.4,0000.0,0009.22,0004.40,0003.67
2023-11-12 21:45:00,SystemResetWarning,0837.1,5.00,000.00,028.1,027.2,000.0,036.1,029.7,7.3,0000.0,0009.43,0004.39,0003.66
2023-11-12 21:46:00,SystemResetWarning,0837.1,5.01,000.00,028.1,027.3,000.0,036.2,029.7,7.3,0000.0,0009.83,0004.39,0003.66
2023-11-12 21:47:00,SystemResetWarning,0837.1,5.00,000.00,028.2,027.4,000.0,036.2,029.8,7.2,0000.0,0009.76,0004.37,0003.66
2023-11-12 21:48:00,SystemResetWarning,0837.1,5.00,000.00,028.2,027.5,000.0,036.2,029.9,7.2,0000.0,0009.86,0004.39,0003.67
2023-11-12 21:49:00,SystemResetWarning,0837.1,5.00,000.00,028.3,027.5,000.0,036.3,029.9,7.1,0000.0,0010.15,0004.42,0003.68
2023-11-12 21:50:00,SystemResetWarning,0837.1,4.99,000.00,028.3,026.2,000.0,036.3,029.8,7.2,0000.0,0010.81,0004.44,0003.67
2023-11-12 21:51:00,SystemResetWarning,0837.0,5.01,000.00,028.2,024.1,000.0,036.2,029.4,7.3,0000.0,0010.75,0004.43,0003.67
2023-11-12 21:52:00,SystemResetWarning,0836.9,5.02,000.00,028.0,023.6,000.0,036.2,029.1,7.3,0000.0,0010.78,0004.45,0003.67
2023-11-12 21:53:00,SystemResetWarning,0836.9,4.99,000.00,027.9,024.0,000.0,036.1,028.7,7.4,0000.0,0010.92,0004.48,0003.65
2023-11-12 21:54:00,SystemResetWarning,0836.9,5.00,000.00,027.7,024.4,000.0,036.1,028.7,7.4,0000.0,0010.88,0004.44,0003.64
2023-11-12 21:55:00,SystemResetWarning,0837.0,4.99,000.00,027.7,024.9,000.0,036.0,028.8,7.4,0000.0,0010.73,0004.40,0003.63
2023-11-12 21:56:00,SystemResetWarning,0837.0,5.00,000.00,027.7,025.3,000.0,036.0,029.0,7.4,0000.0,0010.58,0004.38,0003.61
2023-11-12 21:57:00,SystemResetWarning,0837.0,4.99,000.00,027.7,025.6,000.0,036.0,029.1,7.4,0000.0,0010.16,0004.35,0003.60
2023-11-12 21:58:00,SystemResetWarning,0837.0,5.00,000.00,027.7,026.0,000.0,036.0,029.2,7.4,0000.0,0010.28,0004.35,0003.58
2023-11-12 21:59:00,SystemResetWarning,0837.1,5.00,000.00,027.8,026.2,000.0,036.0,029.3,7.4,0000.0,0009.73,0004.36,0003.58
